sat.trackr.live / text

‹ back to catalog

SITRO-AIS-64

NORAD 67292 · 2025-313AW

PAYLOAD ACTIVE UNKNOWN

§ Identity

Operator
Country
CIS
Launch date
2025-12-28
Launch site
VOSTO
Launch vehicle
Mass (kg)
RCS (m²)

External: N2YO · Heavens-Above · Gunter

§ Orbital elements

Epoch: 2026-09-19T10:58:26.750784Z

Period
94.33 min
Inclination
97.3855°
Eccentricity
0.0009190
Mean motion
15.26499981 rev/d
Perigee alt
480.0 km
Apogee alt
492.6 km
Semi-major
6,864.4 km
B*
2.4231e-4
RAAN
336.4283°
Arg perigee
32.2550°
Mean anomaly
327.9249°
Rev number
4,035

§ Raw data

SITRO-AIS-641 67292U 25313AW  26262.45725406  .00006259  00000+0  24231-3 0  99972 67292  97.3855 336.4283 0009190  32.2550 327.9249 15.26499981 40352

JSON: /api/v1/satellites/67292 · /tle

For live sub-satellite position, see the globe view (requires WebGL).

§ Visibility from observer

Set your observer location to see the next 7 days of passes ≥ 10°. The values pass through the URL so the page stays shareable.

No JS? Fill the form by hand. The geolocation button needs JavaScript.